Weather History for Spirit of St Louis, MO

Change the Weather History Date:

Monday, July 15, 2013

  Actual Average Record
Temperature  
Mean Temperature 80 °F -  
Max Temperature 91 °F 87 °F 97 °F (2006)
Min Temperature 70 °F 65 °F 55 °F (2001)
Cooling Degree Days 15    
Growing Degree Days 30 (Base 50)    
Moisture  
Dew Point 71 °F    
Average Humidity 76    
Maximum Humidity 93    
Minimum Humidity 53    
Precipitation  
Precipitation 0.01 in - - ()
Sea Level Pressure  
Sea Level Pressure 30.16 in    
Wind  
Wind Speed 3 mph (SE)    
Max Wind Speed 14 mph    
Max Gust Speed -    
Visibility 10 miles    
Events      
Averages and records for this station are not official NWS values.
T = Trace of Precipitation, MM = Missing Value Source: NWS Daily Summary

Daily Weather History Graph

Daily Weather History Graph

Search for Another Location

Airport:

Trip Planner

Search our weather history database for the weather conditions in past years. The results will help you decide how hot, cold, wet, or windy it might be!

Date:

Astronomy

Jul. 15, 2013 Rise Set
Actual Time 5:50 AM CDT 8:26 PM CDT
Civil Twilight 5:19 AM CDT 8:57 PM CDT
Nautical Twilight 4:40 AM CDT 9:35 PM CDT
Astronomical Twilight 3:57 AM CDT 10:18 PM CDT
Moon 1:04 PM CDT (7/15) No Moon Set
Length of Visible Light 15h 37m
Length of Day
14h 35m
Waxing Crescent, 45% of the Moon is Illuminated
Jul 15
Waxing Crescent
Jul 15
First Quarter
Jul 22
Full
Jul 29
Last Quarter
Aug 6
New

Hourly Weather History & Observations

Time (CDT) Temp. Heat Index Dew Point Humidity Pressure Visibility Wind Dir Wind Speed Gust Speed Precip Events Conditions
12:54 AM 75.9 °F - 70.0 °F 82% 30.12 in 10.0 mi East 3.5 mph - N/A   Scattered Clouds
1:54 AM 75.0 °F - 70.0 °F 84% 30.12 in 10.0 mi ESE 3.5 mph - N/A   Clear
2:54 AM 73.9 °F - 70.0 °F 87% 30.12 in 10.0 mi ESE 3.5 mph - N/A   Clear
3:54 AM 72.0 °F - 70.0 °F 93% 30.12 in 10.0 mi Calm Calm - N/A   Clear
4:54 AM 72.0 °F - 69.1 °F 91% 30.13 in 9.0 mi Calm Calm - N/A   Clear
5:54 AM 70.0 °F - 68.0 °F 93% 30.15 in 10.0 mi Calm Calm - N/A   Scattered Clouds
6:54 AM 73.0 °F - 70.0 °F 90% 30.16 in 10.0 mi Calm Calm - N/A   Scattered Clouds
7:54 AM 78.1 °F - 72.0 °F 81% 30.17 in 10.0 mi East 3.5 mph - N/A   Partly Cloudy
8:54 AM 81.0 °F 85.2 °F 72.0 °F 74% 30.18 in 10.0 mi SE 5.8 mph - N/A   Partly Cloudy
9:54 AM 82.9 °F 88.8 °F 73.0 °F 72% 30.19 in 10.0 mi Calm Calm - N/A   Scattered Clouds
10:54 AM 84.9 °F 90.7 °F 72.0 °F 65% 30.20 in 10.0 mi ESE 5.8 mph - N/A   Mostly Cloudy
11:54 AM 88.0 °F 92.9 °F 70.0 °F 55% 30.18 in 10.0 mi SSE 3.5 mph - N/A   Mostly Cloudy
12:54 PM 86.0 °F 91.5 °F 71.1 °F 61% 30.18 in 10.0 mi East 3.5 mph - N/A   Mostly Cloudy
1:54 PM 82.0 °F 87.4 °F 73.0 °F 74% 30.17 in 10.0 mi South 6.9 mph - 0.00 in   Mostly Cloudy
2:54 PM 89.1 °F 95.0 °F 71.1 °F 55% 30.15 in 10.0 mi East 8.1 mph - N/A   Scattered Clouds
3:54 PM 90.0 °F 96.4 °F 71.1 °F 54% 30.13 in 10.0 mi East 8.1 mph - N/A   Scattered Clouds
4:54 PM 89.1 °F 94.1 °F 70.0 °F 53% 30.13 in 10.0 mi ESE 5.8 mph - N/A   Mostly Cloudy
5:54 PM 80.1 °F 83.8 °F 72.0 °F 76% 30.15 in 10.0 mi WSW 13.8 mph - 0.01 in   Mostly Cloudy
6:54 PM 82.0 °F 86.3 °F 71.1 °F 69% 30.14 in 10.0 mi NW 4.6 mph - N/A   Clear
7:54 PM 82.0 °F 86.3 °F 71.1 °F 69% 30.15 in 10.0 mi Calm Calm - N/A   Clear
8:54 PM 84.9 °F 90.7 °F 72.0 °F 65% 30.16 in 10.0 mi Calm Calm - N/A   Clear
9:54 PM 75.9 °F - 72.0 °F 87% 30.19 in 10.0 mi WSW 3.5 mph - N/A   Clear
10:54 PM 75.0 °F - 72.0 °F 90% 30.20 in 10.0 mi Calm Calm - N/A   Clear
11:54 PM 73.9 °F - 72.0 °F 93% 30.21 in 10.0 mi Calm Calm - N/A   Clear